Location: Carrières
(48.9495°N, 2.0407°E)
Time: 07:36:21
(UTC+00:00)

Cosmos 1697 Rocket - Pass Details

Date: 28 January 2023
Orbit: 834 x 842 km, 71.0° (Epoch: 24 March)

Event Time Altitude Azimuth Distance (km) Brightness Sun altitude
Rises 18:40:11 0° 237° (WSW) 3,390 7.0 -19.3°
Reaches altitude 10° 18:42:52 10° 247° (WSW) 2,459 6.2 -19.7°
Maximum altitude 18:47:56 33° 311° (NW) 1,376 4.2 -20.6°
Drops below altitude 10° 18:53:02 10° 15° (NNE) 2,467 4.9 -21.4°
Enters shadow 18:53:38 - 18° (NNE) 2,669 5.1 -21.5°
